sat.trackr.live / text

‹ back to catalog

STARLINK-37284

NORAD 68623 · 2026-073X

PAYLOAD ACTIVE UNKNOWN

§ Identity

Operator
Country
US
Launch date
2026-04-07
Launch site
AFWTR
Launch vehicle
Mass (kg)
RCS (m²)

Purposes: comms

External: N2YO · Heavens-Above · Gunter

§ Orbital elements

Epoch: 2026-05-25T04:00:03.998880Z

Period
92.74 min
Inclination
97.2855°
Eccentricity
0.0002951
Mean motion
15.52704276 rev/d
Perigee alt
406.8 km
Apogee alt
410.8 km
Semi-major
6,787.0 km
B*
-5.9666e-2
RAAN
344.7346°
Arg perigee
80.3962°
Mean anomaly
39.5054°
Rev number
590

§ Raw data

STARLINK-372841 68623U 26073X   26145.16671295 -.03226955  00000+0 -59666-1 0  99942 68623  97.2855 344.7346 0002951  80.3962  39.5054 15.52704276  5908

JSON: /api/v1/satellites/68623 · /tle

For live sub-satellite position, see the globe view (requires WebGL).

§ Visibility from observer

Set your observer location to see the next 7 days of passes ≥ 10°. The values pass through the URL so the page stays shareable.

No JS? Fill the form by hand. The geolocation button needs JavaScript.